SCP
0 0 0 0 0 0 0 0 0 0 0 0 0 0 0 0 0 0 0 0 0 0 -0 -0 -0 0 0 0 0 0 0 0 0 0 0 0 0 0 0 0 0 0 0
0 0 0 0 0 0 0 0 0 0 0 0 0 0 0 0 0 0 0 0 0 0 -0 -0 -0 0 0 0 0 0 0 0 0 0 0 0 0 0 0 0 0 0 0
0 0 0 0 0 0 0 0 0 0 0 0 0 0 0 0 0 0 0 0 0 0 0 0 -0 0 0 0 0 0 0 0 0 0 0 0 0 0 0 0 0 0 0
0 0 0 0 0 0 0 0 0 0 0 0 0 0 0 0 0 0 0 0 0 0 0 0 0 0 0 0 0 0 0 0 0 0 0 0 0 0 0 0 0 0 0
0 0 0 0 0 0 0 0 0 0 0 0 0 0 0 0 0 0 0 0 0 0 0 0 0 0 0 0 0 0 0 0 0 0 0 0 0 0 0 0 0 0 0
0 0 0 0 0 0 0 0 0 0 0 0 0 0 0 0 0 0 0 0 0 0 0 0 0 0 0 0 0 0 0 0 0 0 0 0 0 0 0 0 0 0 0
0 0 0 0 0 0 0 0 0 0 0 0 0 0 0 0 0 0 0 0 0 0 0 0 0 0 0 0 0 0 0 0 0 0 0 0 0 0 0 0 0 0 0
0 0 0 0 0 0 0 0 0 0 0 0 0 0 0 0 0 0 0 0 0 0 0 0 0 0 0 0 0 0 0 0 0 0 0 0 0 0 0 0 0 0 0
0 0 0 0 0 0 0 0 0 0 0 0 0 0 0 0 0 0 0 0 0 0 0 -0 -0 0 -0 -0 0 0 0 0 0 0 0 0 0 -0 0 0 0 0 0
0 0 0 0 0 0 0 0 0 0 0 0 0 0 0 0 0 0 0 0 0 0 0 0 -0 0 -0 -0 -0 0 0 -0 -0 0 0 0 0 0 -0 0 0 0 0
0 0 0 0 0 0 0 0 0 0 0 0 0 0 0 0 0 0 0 0 0 0 0 0 0 -0 -0 -0 0 0 0 -0 -0 -0 0 0 0 0 0 0 0 0 0
0 0 0 0 0 0 0 0 0 0 0 0 0 0 0 0 0 0 0 0 0 0 0 0 0 0 -0 -0 0 0 -0 -0 -0 -0 -0 0 0 0 0 0 0 0 0
0 0 0 0 0 0 0 0 0 0 0 0 0 0 0 0 0 0 0 0 0 0 0 0 0 0 -0 -0 -0 -0 -0 -0 -0 -0 -0 0 0 0 0 0 0 0 0
0 0 0 0 0 0 0 0 0 0 0 0 0 0 0 0 0 0 0 0 0 0 0 0 0 -0 -0 -0 -0 -0 -0 -0 -0 -0 0 0 0 0 0 0 0 0 0
0 0 0 0 0 0 0 0 0 0 0 0 0 0 0 0 0 0 0 0 0 0 0 0 0 0 -0 -0 -0 -0 -0 0 -0 -0 -0 0 0 0 0 0 0 0 0
0 0 0 0 0 0 0 0 0 0 0 0 0 0 0 0 0 0 0 0 0 0 0 0 0 0 0 0 -0 -0 0 0 0 0 0 0 0 0 0 0 0 0 0
0 0 0 0 0 0 0 0 0 0 0 0 0 -0 0 0 0 0 0 0 0 0 0 0 0 0 0 0 0 0 0 0 0 0 0 0 0 0 0 0 0 0 0
0 0 0 0 0 0 0 0 0 0 0 0 0 0 0 0 0 0 0 0 0 0 0 0 0 0 0 0 0 0 0 0 0 0 0 0 0 0 0 0 0 0 0
0 0 0 0 0 0 0 0 0 0 0 0 0 0 0 0 0 0 0 0 0 0 0 0 0 0 0 0 0 0 0 0 0 0 0 0 0 0 0 0 0 0 0
0 0 0 0 0 0 0 0 0 0 0 0 0 0 0 0 0 0 0 0 0 0 0 0 0 0 0 0 0 0 0 0 0 0 0 0 0 0 0 0 0 0 0
0 0 0 0 0 0 0 0 0 0 0 0 0 0 0 0 0 0 0 0 0 0 0 0 0 0 0 0 0 0 0 0 0 0 0 0 0 0 0 0 0 0 0
0 0 0 0 0 0 0 0 0 0 0 0 0 0 0 0 0 0 0 0 0 0 0 0 0 0 0 0 0 0 0 0 0 0 0 0 0 0 0 0 0 0 0
0 0 0 0 0 0 0 0 0 0 0 0 0 0 0 0 0 0 0 0 0 0 0 0 0 0 0 0 0 0 0 0 0 0 0 0 0 0 0 0 0 0 0
0 0 0 0 0 0 0 0 0 0 0 0 0 0 0 0 0 0 0 0 0 0 0 0 0 0 0 0 0 0 0 0 0 0 0 0 0 0 0 0 0 0 0
0 0 0 0 0 0 0 0 0 0 0 0 0 0 0 0 0 0 0 0 0 0 0 0 0 0 0 0 0 0 0 0 0 0 0 0 0 0 0 0 0 0 0
0 0 0 0 0 0 0 0 0 0 0 0 0 0 0 0 0 0 0 0 0 0 0 0 0 0 0 0 0 0 0 0 0 0 0 0 0 0 0 0 0 0 0
Wind_Speed_500mb
33 29 26 24 23 20 17 15 13 11 11 14 17 19 23 27 27 28 28 30 29 28 28 28 28 28 24 25 33 34 33 35 29 38 40 48 53 56 62 74 83 88 92
37 33 30 27 26 23 20 18 17 14 12 15 15 17 19 23 24 24 26 27 28 27 27 28 27 27 25 29 29 30 32 35 35 38 44 49 52 52 57 62 76 77 83
42 39 35 32 29 27 23 21 19 18 17 17 15 14 18 19 20 20 22 23 25 26 26 28 28 28 25 28 30 32 32 31 35 39 44 47 49 53 59 59 68 76 76
47 43 40 34 30 28 26 24 22 21 19 18 14 19 15 14 16 16 17 19 20 22 23 27 29 30 28 30 31 31 32 33 36 40 44 50 53 55 59 65 67 71 80
50 48 45 39 36 33 31 28 26 25 24 22 19 16 17 13 13 13 12 13 14 17 18 22 27 28 29 31 33 32 33 36 38 42 45 49 53 60 66 66 63 58 71
53 52 50 45 41 39 36 35 32 31 29 27 24 20 19 15 13 11 10 9 9 12 13 17 22 24 26 29 31 32 35 37 40 43 46 50 51 46 53 56 61 71 64
56 55 54 51 47 43 39 37 36 36 34 31 29 25 21 18 15 11 9 7 7 7 9 11 19 20 21 24 26 28 30 34 39 41 45 51 51 50 44 47 51 61 63
57 60 57 55 51 47 45 43 41 40 39 36 34 30 27 22 19 15 11 8 7 7 7 9 14 15 16 18 22 24 26 32 36 38 41 44 46 46 46 41 47 54 56
57 63 61 58 57 54 51 48 44 44 44 43 40 35 32 27 24 20 16 12 9 8 7 7 10 11 13 12 18 20 23 27 29 31 35 37 39 40 40 42 49 50 59
51 60 62 61 61 59 53 50 46 47 47 46 45 40 39 32 29 26 22 18 14 12 10 9 9 9 10 10 13 16 18 20 21 24 26 29 33 35 38 45 49 54 53
36 45 58 64 62 59 55 52 47 50 50 50 50 46 45 38 35 31 28 24 20 17 15 14 12 10 8 8 9 11 13 14 16 18 21 24 26 29 34 40 44 46 48
27 35 44 54 65 64 59 56 53 56 54 54 55 52 51 45 42 37 34 30 26 23 20 19 16 14 12 9 7 7 9 9 10 12 14 18 20 25 29 33 36 38 40
26 28 34 42 57 64 65 67 61 60 61 61 61 60 58 51 47 44 39 37 33 29 26 25 21 20 18 15 12 9 7 6 5 6 8 12 15 18 23 26 29 31 33
27 29 33 40 50 60 71 68 69 71 70 68 66 66 65 58 54 51 46 43 40 37 34 32 27 26 25 22 18 14 11 8 5 3 3 6 10 14 18 21 24 26 28
32 32 37 41 47 56 67 70 74 75 72 71 69 69 68 66 59 52 48 46 42 40 38 37 35 34 33 29 25 21 17 13 10 7 4 1 3 7 12 16 18 21 23
38 41 43 43 45 53 61 68 74 78 78 75 73 67 66 64 59 56 51 48 46 46 46 45 42 40 39 36 32 28 25 21 17 14 10 7 4 4 6 9 12 16 18
39 43 49 50 48 50 53 63 71 75 82 82 76 71 68 66 63 59 57 55 54 55 56 53 50 47 45 42 38 35 31 26 23 20 16 13 10 6 4 5 7 10 14
44 46 52 56 55 54 53 57 64 71 81 88 83 76 75 74 70 66 63 62 69 71 66 61 57 53 52 49 47 42 37 33 30 27 23 20 16 12 10 7 7 9 12
53 51 55 59 60 59 58 58 62 66 71 81 85 84 84 80 76 72 73 79 81 79 73 72 64 61 59 56 53 50 45 41 36 34 31 28 25 20 17 13 12 12 12
59 58 59 61 62 65 66 67 65 68 71 74 87 94 89 85 90 92 91 94 95 89 81 77 72 68 65 62 61 57 54 50 46 42 39 36 32 29 25 21 19 17 17
70 65 64 67 70 67 71 72 74 73 74 80 82 88 95 96 98 98 102 106 107 100 88 83 78 75 73 68 68 67 63 58 54 50 47 44 40 36 33 30 26 25 23
73 71 68 72 74 77 77 75 76 79 80 83 83 83 87 99 102 101 104 109 110 106 95 87 84 79 80 78 73 73 71 66 62 58 54 51 47 44 40 37 34 31 28
72 74 72 74 78 80 83 84 80 79 85 86 85 85 86 96 105 106 105 104 108 112 106 98 91 85 82 82 81 77 75 71 64 61 59 57 54 51 48 45 41 37 33
63 67 71 75 75 79 83 87 90 86 83 87 91 93 91 94 97 106 106 105 105 110 111 107 100 92 85 84 84 82 80 76 70 67 65 64 60 58 56 52 46 42 40
57 58 64 68 72 76 83 85 88 91 89 85 89 94 96 96 96 97 100 105 105 107 110 109 105 99 92 87 85 83 82 81 78 73 72 71 67 64 61 56 53 50 47
60 58 64 68 71 72 75 81 86 89 93 92 88 90 94 98 99 96 96 100 104 106 112 111 108 102 96 92 89 85 83 83 82 80 77 76 73 70 67 62 60 56 51
Wind_Direction_500mb
216 219 220 219 216 211 205 200 193 178 154 128 111 100 92 87 78 72 67 64 61 58 59 59 60 54 42 38 32 36 28 26 20 22 24 27 26 26 30 33 32 30 35
220 222 223 222 220 217 213 207 196 187 175 145 128 112 107 93 85 79 73 68 66 64 64 63 61 58 49 45 38 30 29 26 26 24 26 28 29 28 24 29 36 31 38
223 224 225 225 222 220 217 214 206 199 191 159 147 138 115 105 97 88 82 74 70 67 65 67 62 60 54 52 45 38 33 37 34 33 33 34 32 32 38 40 41 37 43
225 226 228 228 229 227 224 217 210 204 207 180 177 156 132 125 114 103 92 84 76 72 68 68 66 62 57 56 53 48 43 43 41 38 37 34 32 36 40 41 43 40 40
226 226 228 228 227 226 224 222 217 211 213 195 189 184 155 156 139 124 107 94 83 80 74 72 70 66 61 59 58 54 51 49 49 49 43 38 34 33 35 39 43 46 42
227 227 227 229 230 228 224 221 220 217 211 207 207 198 170 177 165 151 129 115 100 91 84 80 77 69 65 62 61 58 54 53 51 48 44 41 38 38 38 39 41 40 36
228 229 230 229 229 229 228 226 227 221 217 212 219 204 189 193 187 180 161 148 131 113 99 92 84 76 70 66 63 58 54 52 49 46 43 41 37 35 40 40 45 46 40
231 231 231 230 231 230 229 226 225 227 222 217 222 211 202 202 202 195 188 180 171 150 136 116 97 91 81 74 69 61 54 52 49 47 45 45 43 40 39 43 49 54 49
233 233 234 234 233 232 230 229 227 228 224 223 223 216 216 208 211 209 203 197 196 186 171 146 127 115 96 85 81 70 59 54 51 49 50 48 48 47 48 50 53 52 51
241 238 237 235 235 236 234 236 232 233 229 227 226 219 222 214 218 217 215 211 202 204 190 185 166 138 116 100 83 78 69 60 54 52 53 52 50 47 50 52 49 49 50
259 251 244 240 238 239 237 237 237 239 233 229 228 224 227 218 221 221 219 220 212 211 204 209 197 169 154 130 106 93 82 70 60 54 52 50 52 52 52 51 51 50 49
266 258 254 245 240 237 235 241 235 238 237 234 232 228 228 223 224 225 223 223 220 216 212 218 215 198 188 171 152 132 108 90 70 57 57 61 55 50 48 48 48 47 47
282 272 262 250 242 238 233 237 236 238 239 237 233 233 230 226 227 226 225 224 224 221 220 220 222 216 205 196 188 180 161 141 103 70 61 59 52 47 43 42 42 43 43
293 279 266 254 247 238 234 241 232 235 237 238 236 236 235 230 229 227 225 226 223 224 220 223 220 223 218 210 206 199 193 189 176 139 78 48 35 32 34 34 34 37 38
290 283 273 262 252 247 244 246 243 235 238 242 243 242 240 236 234 232 230 230 228 228 226 226 222 225 225 220 213 205 205 210 208 206 227 259 9 16 24 29 29 29 31
293 281 278 272 265 256 250 251 245 239 234 240 241 244 248 246 241 238 235 230 227 228 228 229 227 224 227 225 220 216 212 213 217 220 231 244 271 324 360 17 23 21 21
295 284 275 274 269 264 260 252 247 243 238 235 236 240 241 242 241 239 237 235 233 231 230 230 229 228 229 229 225 225 224 222 224 229 234 247 250 256 286 331 359 6 7
294 287 277 272 272 270 266 262 255 251 245 239 234 236 238 238 236 235 234 234 232 231 231 232 231 229 231 231 231 228 230 231 231 234 230 233 235 237 245 268 304 327 342
287 283 280 276 272 269 267 264 260 256 253 245 238 233 238 237 235 234 235 235 236 236 235 234 232 230 231 234 234 235 231 233 234 236 235 230 230 231 236 246 267 288 307
283 280 277 277 274 269 264 260 259 256 253 249 243 238 235 238 234 230 229 233 235 235 236 237 236 236 233 234 237 235 237 234 234 232 234 234 233 234 236 242 251 264 278
281 276 271 270 270 270 267 262 259 257 253 252 249 243 240 237 239 236 235 234 237 237 236 238 236 236 237 234 236 238 237 238 237 234 233 234 235 236 238 241 247 255 263
281 276 270 266 267 267 267 266 262 258 256 254 253 251 246 243 241 240 239 239 241 244 244 242 242 238 238 238 237 239 239 239 239 237 235 235 235 237 239 243 247 253 262
282 277 271 267 265 265 264 264 262 260 258 257 255 251 248 246 243 241 241 241 241 244 245 244 243 242 239 239 240 240 242 242 242 242 239 238 239 240 241 244 248 252 260
284 277 273 268 265 264 263 263 264 263 261 259 258 257 254 249 247 244 243 243 242 244 244 245 245 244 242 241 241 241 240 240 237 239 241 240 240 241 243 245 249 255 258
299 282 272 266 262 259 261 262 261 262 262 260 260 258 257 254 251 249 247 244 244 245 246 245 245 243 242 240 241 242 242 240 239 236 238 242 242 243 244 247 249 252 257
302 295 281 269 262 258 255 255 258 260 260 262 261 260 258 257 255 250 249 248 245 245 248 246 245 243 241 240 240 240 240 240 239 239 237 240 242 243 245 247 249 252 255
Wind_Speed_850mb
33 29 26 24 23 20 17 15 13 11 11 14 17 19 23 27 27 28 28 30 29 28 28 28 28 28 24 25 33 34 33 35 29 38 40 48 53 56 62 74 83 88 92
37 33 30 27 26 23 20 18 17 14 12 15 15 17 19 23 24 24 26 27 28 27 27 28 27 27 25 29 29 30 32 35 35 38 44 49 52 52 57 62 76 77 83
42 39 35 32 29 27 23 21 19 18 17 17 15 14 18 19 20 20 22 23 25 26 26 28 28 28 25 28 30 32 32 31 35 39 44 47 49 53 59 59 68 76 76
47 43 40 34 30 28 26 24 22 21 19 18 14 19 15 14 16 16 17 19 20 22 23 27 29 30 28 30 31 31 32 33 36 40 44 50 53 55 59 65 67 71 80
50 48 45 39 36 33 31 28 26 25 24 22 19 16 17 13 13 13 12 13 14 17 18 22 27 28 29 31 33 32 33 36 38 42 45 49 53 60 66 66 63 58 71
53 52 50 45 41 39 36 35 32 31 29 27 24 20 19 15 13 11 10 9 9 12 13 17 22 24 26 29 31 32 35 37 40 43 46 50 51 46 53 56 61 71 64
56 55 54 51 47 43 39 37 36 36 34 31 29 25 21 18 15 11 9 7 7 7 9 11 19 20 21 24 26 28 30 34 39 41 45 51 51 50 44 47 51 61 63
57 60 57 55 51 47 45 43 41 40 39 36 34 30 27 22 19 15 11 8 7 7 7 9 14 15 16 18 22 24 26 32 36 38 41 44 46 46 46 41 47 54 56
57 63 61 58 57 54 51 48 44 44 44 43 40 35 32 27 24 20 16 12 9 8 7 7 10 11 13 12 18 20 23 27 29 31 35 37 39 40 40 42 49 50 59
51 60 62 61 61 59 53 50 46 47 47 46 45 40 39 32 29 26 22 18 14 12 10 9 9 9 10 10 13 16 18 20 21 24 26 29 33 35 38 45 49 54 53
36 45 58 64 62 59 55 52 47 50 50 50 50 46 45 38 35 31 28 24 20 17 15 14 12 10 8 8 9 11 13 14 16 18 21 24 26 29 34 40 44 46 48
27 35 44 54 65 64 59 56 53 56 54 54 55 52 51 45 42 37 34 30 26 23 20 19 16 14 12 9 7 7 9 9 10 12 14 18 20 25 29 33 36 38 40
26 28 34 42 57 64 65 67 61 60 61 61 61 60 58 51 47 44 39 37 33 29 26 25 21 20 18 15 12 9 7 6 5 6 8 12 15 18 23 26 29 31 33
27 29 33 40 50 60 71 68 69 71 70 68 66 66 65 58 54 51 46 43 40 37 34 32 27 26 25 22 18 14 11 8 5 3 3 6 10 14 18 21 24 26 28
32 32 37 41 47 56 67 70 74 75 72 71 69 69 68 66 59 52 48 46 42 40 38 37 35 34 33 29 25 21 17 13 10 7 4 1 3 7 12 16 18 21 23
38 41 43 43 45 53 61 68 74 78 78 75 73 67 66 64 59 56 51 48 46 46 46 45 42 40 39 36 32 28 25 21 17 14 10 7 4 4 6 9 12 16 18
39 43 49 50 48 50 53 63 71 75 82 82 76 71 68 66 63 59 57 55 54 55 56 53 50 47 45 42 38 35 31 26 23 20 16 13 10 6 4 5 7 10 14
44 46 52 56 55 54 53 57 64 71 81 88 83 76 75 74 70 66 63 62 69 71 66 61 57 53 52 49 47 42 37 33 30 27 23 20 16 12 10 7 7 9 12
53 51 55 59 60 59 58 58 62 66 71 81 85 84 84 80 76 72 73 79 81 79 73 72 64 61 59 56 53 50 45 41 36 34 31 28 25 20 17 13 12 12 12
59 58 59 61 62 65 66 67 65 68 71 74 87 94 89 85 90 92 91 94 95 89 81 77 72 68 65 62 61 57 54 50 46 42 39 36 32 29 25 21 19 17 17
70 65 64 67 70 67 71 72 74 73 74 80 82 88 95 96 98 98 102 106 107 100 88 83 78 75 73 68 68 67 63 58 54 50 47 44 40 36 33 30 26 25 23
73 71 68 72 74 77 77 75 76 79 80 83 83 83 87 99 102 101 104 109 110 106 95 87 84 79 80 78 73 73 71 66 62 58 54 51 47 44 40 37 34 31 28
72 74 72 74 78 80 83 84 80 79 85 86 85 85 86 96 105 106 105 104 108 112 106 98 91 85 82 82 81 77 75 71 64 61 59 57 54 51 48 45 41 37 33
63 67 71 75 75 79 83 87 90 86 83 87 91 93 91 94 97 106 106 105 105 110 111 107 100 92 85 84 84 82 80 76 70 67 65 64 60 58 56 52 46 42 40
57 58 64 68 72 76 83 85 88 91 89 85 89 94 96 96 96 97 100 105 105 107 110 109 105 99 92 87 85 83 82 81 78 73 72 71 67 64 61 56 53 50 47
60 58 64 68 71 72 75 81 86 89 93 92 88 90 94 98 99 96 96 100 104 106 112 111 108 102 96 92 89 85 83 83 82 80 77 76 73 70 67 62 60 56 51
Wind_Direction_850mb
216 219 220 219 216 211 205 200 193 178 154 128 111 100 92 87 78 72 67 64 61 58 59 59 60 54 42 38 32 36 28 26 20 22 24 27 26 26 30 33 32 30 35
220 222 223 222 220 217 213 207 196 187 175 145 128 112 107 93 85 79 73 68 66 64 64 63 61 58 49 45 38 30 29 26 26 24 26 28 29 28 24 29 36 31 38
223 224 225 225 222 220 217 214 206 199 191 159 147 138 115 105 97 88 82 74 70 67 65 67 62 60 54 52 45 38 33 37 34 33 33 34 32 32 38 40 41 37 43
225 226 228 228 229 227 224 217 210 204 207 180 177 156 132 125 114 103 92 84 76 72 68 68 66 62 57 56 53 48 43 43 41 38 37 34 32 36 40 41 43 40 40
226 226 228 228 227 226 224 222 217 211 213 195 189 184 155 156 139 124 107 94 83 80 74 72 70 66 61 59 58 54 51 49 49 49 43 38 34 33 35 39 43 46 42
227 227 227 229 230 228 224 221 220 217 211 207 207 198 170 177 165 151 129 115 100 91 84 80 77 69 65 62 61 58 54 53 51 48 44 41 38 38 38 39 41 40 36
228 229 230 229 229 229 228 226 227 221 217 212 219 204 189 193 187 180 161 148 131 113 99 92 84 76 70 66 63 58 54 52 49 46 43 41 37 35 40 40 45 46 40
231 231 231 230 231 230 229 226 225 227 222 217 222 211 202 202 202 195 188 180 171 150 136 116 97 91 81 74 69 61 54 52 49 47 45 45 43 40 39 43 49 54 49
233 233 234 234 233 232 230 229 227 228 224 223 223 216 216 208 211 209 203 197 196 186 171 146 127 115 96 85 81 70 59 54 51 49 50 48 48 47 48 50 53 52 51
241 238 237 235 235 236 234 236 232 233 229 227 226 219 222 214 218 217 215 211 202 204 190 185 166 138 116 100 83 78 69 60 54 52 53 52 50 47 50 52 49 49 50
259 251 244 240 238 239 237 237 237 239 233 229 228 224 227 218 221 221 219 220 212 211 204 209 197 169 154 130 106 93 82 70 60 54 52 50 52 52 52 51 51 50 49
266 258 254 245 240 237 235 241 235 238 237 234 232 228 228 223 224 225 223 223 220 216 212 218 215 198 188 171 152 132 108 90 70 57 57 61 55 50 48 48 48 47 47
282 272 262 250 242 238 233 237 236 238 239 237 233 233 230 226 227 226 225 224 224 221 220 220 222 216 205 196 188 180 161 141 103 70 61 59 52 47 43 42 42 43 43
293 279 266 254 247 238 234 241 232 235 237 238 236 236 235 230 229 227 225 226 223 224 220 223 220 223 218 210 206 199 193 189 176 139 78 48 35 32 34 34 34 37 38
290 283 273 262 252 247 244 246 243 235 238 242 243 242 240 236 234 232 230 230 228 228 226 226 222 225 225 220 213 205 205 210 208 206 227 259 9 16 24 29 29 29 31
293 281 278 272 265 256 250 251 245 239 234 240 241 244 248 246 241 238 235 230 227 228 228 229 227 224 227 225 220 216 212 213 217 220 231 244 271 324 360 17 23 21 21
295 284 275 274 269 264 260 252 247 243 238 235 236 240 241 242 241 239 237 235 233 231 230 230 229 228 229 229 225 225 224 222 224 229 234 247 250 256 286 331 359 6 7
294 287 277 272 272 270 266 262 255 251 245 239 234 236 238 238 236 235 234 234 232 231 231 232 231 229 231 231 231 228 230 231 231 234 230 233 235 237 245 268 304 327 342
287 283 280 276 272 269 267 264 260 256 253 245 238 233 238 237 235 234 235 235 236 236 235 234 232 230 231 234 234 235 231 233 234 236 235 230 230 231 236 246 267 288 307
283 280 277 277 274 269 264 260 259 256 253 249 243 238 235 238 234 230 229 233 235 235 236 237 236 236 233 234 237 235 237 234 234 232 234 234 233 234 236 242 251 264 278
281 276 271 270 270 270 267 262 259 257 253 252 249 243 240 237 239 236 235 234 237 237 236 238 236 236 237 234 236 238 237 238 237 234 233 234 235 236 238 241 247 255 263
281 276 270 266 267 267 267 266 262 258 256 254 253 251 246 243 241 240 239 239 241 244 244 242 242 238 238 238 237 239 239 239 239 237 235 235 235 237 239 243 247 253 262
282 277 271 267 265 265 264 264 262 260 258 257 255 251 248 246 243 241 241 241 241 244 245 244 243 242 239 239 240 240 242 242 242 242 239 238 239 240 241 244 248 252 260
284 277 273 268 265 264 263 263 264 263 261 259 258 257 254 249 247 244 243 243 242 244 244 245 245 244 242 241 241 241 240 240 237 239 241 240 240 241 243 245 249 255 258
299 282 272 266 262 259 261 262 261 262 262 260 260 258 257 254 251 249 247 244 244 245 246 245 245 243 242 240 241 242 242 240 239 236 238 242 242 243 244 247 249 252 257
302 295 281 269 262 258 255 255 258 260 260 262 261 260 258 257 255 250 249 248 245 245 248 246 245 243 241 240 240 240 240 240 239 239 237 240 242 243 245 247 249 252 255